Regional Weather Roundup
Issued by NWS Upton, NY

Current Version | Previous Version | Text Only | Print | Product List | Glossary On
Versions: 1 2 3 4 5 6 7 8 9 10 11 12 13 14 15 16 17 18 19 20 21 22 23 24 25 26 27 28 29 30 31 32 33 34 35 36 37 38 39 40 41 42 43 44 45 46 47 48 49 50
413 ASUS41 KOKX 280805 RWROKX REGIONAL WEATHER ROUNDUP NATIONAL WEATHER SERVICE NEW YORK NY 400 AM EDT THU JUL 28 2016 NOTE: "FAIR" INDICATES FEW OR NO CLOUDS BELOW 12,000 FEET WITH NO SIGNIFICANT WEATHER AND/OR OBSTRUCTIONS TO VISIBILITY. NYZ071-072-176-178-NJZ106-104-280900- NEW YORK CITY METRO AREA CITY SKY/WX TMP DP RH WIND PRES REMARKS Central Park CLEAR 78 71 79 W5 29.93S LaGuardia APRT PTCLDY 80 73 79 CALM 29.89F Kennedy INTL PTCLDY 75 73 93 CALM 29.91F Newark/Liberty PTCLDY 78 72 81 W3 29.90S Bronx Bot Gard N/A 75 70 83 CALM 29.92S Wall St Helipt SUNNY 79 73 83 SW5 29.91S Teterboro CLEAR 76 67 73 CALM 29.89F $$ NYZ177-179-078>081-280900- LONG ISLAND NEW YORK CITY SKY/WX TMP DP RH WIND PRES REMARKS Farmingdale MOCLDY 76 75 97 W3 29.90F MacArthur/ISP CLOUDY 76 75 97 W5 29.90S Shirley CLOUDY 76 74 93 W3 29.91S Riverhead NOT AVBL Westhampton CLOUDY 67 65 93 CALM 29.92F FOG Southhampton N/A 75 72 88 W3 29.86S Bridgehampton N/A 68 66 94 CALM 29.89F East Hampton FAIR 65 64 96 CALM 29.90S Montauk N/A 72 69 90 CALM 29.91F $$ NYZ052-065-067-280900- HUDSON VALLEY CITY SKY/WX TMP DP RH WIND PRES REMARKS White Plains CLEAR 71 68 90 CALM 29.91S Newburgh CLEAR N/A N/A N/A CALM 29.94R Montgomery CLEAR 63 62 97 CALM 29.92S Poughkeepsie CLEAR 65 62 90 CALM 29.91S Albany CLEAR 67 61 81 CALM 29.90F $$ NJZ001-105-106-008-010-013-015-019>022-104-280900- NEW JERSEY CITY SKY/WX TMP DP RH WIND PRES REMARKS Newark/Liberty PTCLDY 78 72 81 W3 29.90S Teterboro CLEAR 76 67 73 CALM 29.89F Caldwell CLEAR 70 66 87 CALM 29.92S Morristown N/A 64 61 88 CALM 29.92S FOG Somerville CLEAR 67 65 93 CALM 29.90S Linden FAIR 76 71 84 CALM 29.92S Sussex CLEAR 62 62 100 CALM 29.94S Abdover N/A 63 61 93 CALM 29.94S Trenton CLEAR 73 70 90 NW3 29.91S Millville MOCLDY 73 71 93 CALM 29.91S Atlantic City CLEAR 74 70 87 CALM 29.90F Wrightstown CLEAR 73 72 98 CALM 29.88F FOG Toms River CLEAR 72 71 97 CALM 29.91S Belmar PTCLDY 74 73 97 W5 29.92S $$ PAZ047>061-062-071-280900- EASTERN PENNSYLVANIA CITY SKY/WX TMP DP RH WIND PRES REMARKS Philadelphia PTCLDY 77 74 90 S3 29.91S Allentown CLEAR 69 63 81 CALM 29.93S Scranton CLEAR 67 60 78 E6 29.95S $$ CTZ002-004>006-009-010-012-RIZ004-006-007-MAZ004-011-015-280900- SOUTHERN NEW ENGLAND IN CT CITY SKY/WX TMP DP RH WIND PRES REMARKS Bradley INTL CLEAR 66 61 84 CALM 29.90F Hartford CLEAR 72 68 87 CALM 29.89F Danbury CLEAR 65 63 93 CALM 29.93S Wtrbury/Oxford N/A 66 61 82 CALM 29.93S Bridgeport PTCLDY 75 69 81 CALM 29.90S Meriden CLEAR 68 64 87 CALM 29.91S New Haven PTCLDY 69 67 93 CALM 29.90F Chester FAIR 72 66 83 W5 29.91F Groton CLEAR 72 67 84 CALM 29.89F Wilimantic NOT AVBL IN RI CITY SKY/WX TMP DP RH WIND PRES REMARKS Providence CLEAR 70 65 84 CALM 29.90S Block Island PTCLDY 70 69 97 W8 29.91S Westerly CLEAR 71 66 84 CALM 29.91S IN MA CITY SKY/WX TMP DP RH WIND PRES REMARKS Boston CLEAR 76 64 66 W6 29.88S Worchester CLEAR 72 58 61 W8 29.93F Westfield CLEAR 64 61 90 CALM 29.90F Provincetown CLEAR 71 69 93 S8 29.89S Nantucket CLEAR 70 68 93 S8 29.91S $$ ANZ330-335-338-340-345-350-353-355-280900- COASTAL MARINE OBSERVATIONS STATION/POSITION TIME SKY/WX TEMP WIND PRES VSBY WAVE AIR SEA DIR/SP/G HT/PER (UTC) (F) (DEG/KT/KT) (MB) (MI) (FT/S) NY HARB ENTRANCE 0650 76 74 220/ 6/ 8 1012.4 1/ 6 20S FIRE ISLAND 0650 76 76 200/ 6/ 6 1012.2 2/ 6 GREAT SOUTH BAY 0700 78 82 240/ 6/ 8 N/A 23 SSW MONTAUK P 0650 73 70 200/ 4/ 6 1013.1 1/ 6 15 E BARNEGAT LI 0722 78 N/A 2/ 6 HUDSON CANYON 0650 78 79 1012.5 1/ 8 KINGS POINT 0700 76 73 1012.4 EXECUTION ROCKS 0700 73 30/ 2/ 2 N/A CENTRAL LI SOUND 0700 76 75 260/ 6/ 8 N/A 1 EASTERN LI SOUND 0700 71 70 280/ 4/ 4 N/A ROBBINS REEF 0700 76 170/ 5/ 6 1012.0 $$ >>>>>>>>>>>>>>>>>>>>>>>>>>>> KEY <<<<<<<<<<<<<<<<<<<<<<<<<<< > < > SKY/WX - Sky Condition/Present Weather < > TMP - Temperature in Fahrenheit < > DP - Dew Point in Fahrenheit < > RH - Relative Humidity in Percent < > WIND - Direction (from) and Speed in MPH < > PRES - Mean Sea Level Pressure (inches of Hg) < > WCI - Wind Chill Index < > VSB - VISIBILITY IN MILES < > HX - HEAT INDEX < > TC - TEMPERATURE IN CELSIUS < > VRB - VARIABLE WIND DIRECTION < > < >>>>>>>>>>>>>>>>>>>>>>>>>>>> KEY <<<<<<<<<<<<<<<<<<<<<<<<<<<

USA.gov is the U.S. government's official web portal to all federal, state and local government web resources and services.